Volver al catálogo

NOAA 16 DEB

ActivoPO
NORAD 42413·DEBRIS·🇺🇸 United States

Lanzado Sep 21, 2000 desde Vandenberg Space Force Base

Loading…

Próximos Pases (próximas 24 horas)

TLE

ActualizadoSource: Space-Track

Época: Sep 13, 2026, 17:57 UTC

1 42413U 00055TH  26256.74854086  .00004275  00000-0  11402-2 0  9995
2 42413  98.9476  72.6515 0020388 211.1176 148.8809 14.48862368548314

Sigue NOAA 16 DEB en tiempo real con AllMySat

Download on the App Store